Location: Krakow
(50.0212°N, 19.9423°E)
Time: 22:39:48
(UTC+02:00)

NOAA 18 - Pass Details

Date: 14 August 2024
Orbit: 837 x 859 km, 98.9° (Epoch: 19 September)

Event Time Altitude Azimuth Distance (km) Brightness Sun altitude
Exits shadow 22:05:44 28° 131° (SE) 1,565 6.0 -17.1°
Maximum altitude 22:08:30 54° 68° (ENE) 1,039 5.5 -17.4°
Drops below altitude 10° 22:13:54 10° 352° (N) 2,507 8.5 -17.9°
Sets 22:16:20 0° 348° (NNW) 3,448 9.5 -18.2°
